| time (UTC) | temp C | wind direction | speed KPH | gust KPH | rain 1hr cm | rain 24hr cm | rain mn cm | humidity % | barometer mb |
| 20260508025746 | 17 | 25 | 0.0 | 4.8 | 0.00 | 0.00 | 0.00 | 52 | 1019.2 |
| 20260508024713 | 17 | 24 | 3.2 | 6.4 | 0.00 | 0.00 | 0.00 | 50 | 1019.2 |
| 20260508023712 | 17 | 23 | 1.6 | 6.4 | 0.00 | 0.00 | 0.00 | 48 | 1019.2 |
| 20260508022639 | 18 | 19 | 1.6 | 6.4 | 0.00 | 0.00 | 0.00 | 47 | 1018.9 |
| 20260508021639 | 18 | 18 | 1.6 | 6.4 | 0.00 | 0.00 | 0.00 | 46 | 1018.9 |
| 20260508020637 | 18 | 21 | 1.6 | 4.8 | 0.00 | 0.00 | 0.00 | 46 | 1018.8 |
| 20260508015636 | 18 | 12 | 3.2 | 4.8 | 0.00 | 0.00 | 0.00 | 44 | 1018.8 |
| 20260508014635 | 18 | 25 | 1.6 | 6.4 | 0.00 | 0.00 | 0.00 | 42 | 1018.8 |
| 20260508013532 | 19 | 8 | 1.6 | 6.4 | 0.00 | 0.00 | 0.00 | 41 | 1018.8 |
| 20260508012531 | 19 | 11 | 3.2 | 12.9 | 0.00 | 0.00 | 0.00 | 41 | 1018.7 |
| 20260508011529 | 20 | 9 | 3.2 | 12.9 | 0.00 | 0.00 | 0.00 | 43 | 1018.6 |
| 20260508010529 | 20 | 8 | 3.2 | 6.4 | 0.00 | 0.00 | 0.00 | 44 | 1018.4 |
| 20260508005528 | 20 | 20 | 3.2 | 6.4 | 0.00 | 0.00 | 0.00 | 46 | 1018.3 |
| 20260508004527 | 20 | 346 | 1.6 | 6.4 | 0.00 | 0.00 | 0.00 | 46 | 1018.3 |
| 20260508003526 | 20 | 20 | 1.6 | 8.0 | 0.00 | 0.00 | 0.00 | 47 | 1018.3 |
| 20260508002525 | 21 | 7 | 3.2 | 8.0 | 0.00 | 0.00 | 0.00 | 44 | 1018.3 |
| 20260508001524 | 20 | 334 | 1.6 | 9.7 | 0.00 | 0.00 | 0.00 | 44 | 1017.9 |
| 20260508000523 | 20 | 19 | 3.2 | 11.3 | 0.00 | 0.00 | 0.00 | 45 | 1017.9 |
| 20260507235522 | 20 | 7 | 1.6 | 6.4 | 0.00 | 0.00 | 0.00 | 46 | 1017.9 |
| 20260507234521 | 21 | 3 | 1.6 | 6.4 | 0.00 | 0.00 | 0.00 | 41 | 1018.0 |
| 20260507233448 | 21 | 328 | 1.6 | 8.0 | 0.00 | 0.00 | 0.00 | 38 | 1018.1 |
| 20260507232448 | 21 | 352 | 1.6 | 16.1 | 0.00 | 0.00 | 0.00 | 38 | 1018.2 |
| 20260507231446 | 21 | 287 | 4.8 | 16.1 | 0.00 | 0.00 | 0.00 | 32 | 1018.2 |
| 20260507230445 | 21 | 264 | 6.4 | 14.5 | 0.00 | 0.00 | 0.00 | 31 | 1018.3 |
| 20260507225443 | 21 | 282 | 4.8 | 14.5 | 0.00 | 0.00 | 0.00 | 33 | 1018.7 |
| 20260507224442 | 21 | 287 | 4.8 | 17.7 | 0.00 | 0.00 | 0.00 | 33 | 1018.8 |
| 20260507223441 | 21 | 287 | 6.4 | 17.7 | 0.00 | 0.00 | 0.00 | 35 | 1018.9 |
| 20260507222439 | 21 | 275 | 1.6 | 14.5 | 0.00 | 0.00 | 0.00 | 34 | 1019.1 |
| 20260507221439 | 21 | 287 | 4.8 | 14.5 | 0.00 | 0.00 | 0.00 | 35 | 1019.1 |
| 20260507220437 | 21 | 289 | 3.2 | 14.5 | 0.00 | 0.00 | 0.00 | 34 | 1019.1 |
| 20260507215436 | 21 | 267 | 3.2 | 14.5 | 0.00 | 0.00 | 0.00 | 34 | 1019.5 |
| 20260507214435 | 21 | 295 | 1.6 | 14.5 | 0.00 | 0.00 | 0.00 | 34 | 1019.6 |
| 20260507213434 | 21 | 292 | 3.2 | 14.5 | 0.00 | 0.00 | 0.00 | 34 | 1019.7 |
| 20260507212432 | 21 | 300 | 1.6 | 11.3 | 0.00 | 0.00 | 0.00 | 38 | 1019.6 |
| 20260507211400 | 21 | 294 | 1.6 | 16.1 | 0.00 | 0.00 | 0.00 | 34 | 1020.0 |
| 20260507210359 | 21 | 256 | 3.2 | 16.1 | 0.00 | 0.00 | 0.00 | 36 | 1020.1 |
| 20260507205358 | 21 | 307 | 3.2 | 17.7 | 0.00 | 0.00 | 0.00 | 37 | 1020.2 |
| 20260507204356 | 21 | 299 | 1.6 | 14.5 | 0.00 | 0.00 | 0.00 | 39 | 1020.4 |
| 20260507203253 | 21 | 272 | 4.8 | 16.1 | 0.00 | 0.00 | 0.00 | 43 | 1020.5 |
| 20260507202252 | 20 | 274 | 4.8 | 16.1 | 0.00 | 0.00 | 0.00 | 38 | 1020.8 |
| 20260507201251 | 20 | 293 | 4.8 | 14.5 | 0.00 | 0.00 | 0.00 | 43 | 1020.9 |
| 20260507200148 | 20 | 287 | 4.8 | 14.5 | 0.00 | 0.00 | 0.00 | 40 | 1020.9 |
| 20260507195147 | 21 | 295 | 3.2 | 12.9 | 0.00 | 0.00 | 0.00 | 38 | 1020.9 |
| 20260507194115 | 20 | 280 | 3.2 | 11.3 | 0.00 | 0.00 | 0.00 | 43 | 1020.8 |
| 20260507193114 | 20 | 300 | 3.2 | 12.9 | 0.00 | 0.00 | 0.00 | 41 | 1020.8 |
| 20260507192113 | 20 | 278 | 6.4 | 12.9 | 0.00 | 0.00 | 0.00 | 41 | 1020.8 |
| 20260507191040 | 20 | 282 | 3.2 | 12.9 | 0.00 | 0.00 | 0.00 | 42 | 1020.8 |
| 20260507190039 | 19 | 266 | 4.8 | 12.9 | 0.00 | 0.00 | 0.00 | 43 | 1020.7 |
| 20260507185038 | 19 | 282 | 4.8 | 12.9 | 0.00 | 0.00 | 0.00 | 44 | 1020.8 |
| 20260507184037 | 18 | 265 | 4.8 | 12.9 | 0.00 | 0.00 | 0.00 | 47 | 1020.8 |
| 20260507183036 | 18 | 267 | 1.6 | 8.0 | 0.00 | 0.00 | 0.00 | 43 | 1020.8 |
| 20260507182035 | 19 | 280 | 1.6 | 9.7 | 0.00 | 0.00 | 0.00 | 45 | 1021.2 |
| 20260507181034 | 18 | 244 | 3.2 | 9.7 | 0.00 | 0.00 | 0.00 | 47 | 1021.0 |
| 20260507180033 | 18 | 262 | 4.8 | 14.5 | 0.00 | 0.00 | 0.00 | 47 | 1020.7 |
| 20260507175032 | 18 | 253 | 6.4 | 14.5 | 0.00 | 0.00 | 0.00 | 47 | 1020.9 |
| 20260507174031 | 18 | 15 | 1.6 | 4.8 | 0.00 | 0.00 | 0.00 | 47 | 1020.9 |
| 20260507173030 | 17 | 40 | 1.6 | 6.4 | 0.00 | 0.00 | 0.00 | 48 | 1020.8 |
| 20260507172029 | 17 | 11 | 3.2 | 6.4 | 0.00 | 0.00 | 0.00 | 50 | 1020.8 |
| 20260507171028 | 16 | 25 | 3.2 | 4.8 | 0.00 | 0.00 | 0.00 | 53 | 1021.0 |
| 20260507170027 | 16 | 26 | 3.2 | 4.8 | 0.00 | 0.00 | 0.00 | 56 | 1020.6 |
| 20260507165026 | 16 | 26 | 1.6 | 6.4 | 0.00 | 0.00 | 0.00 | 57 | 1020.4 |
| 20260507164025 | 16 | 5 | 0.0 | 6.4 | 0.00 | 0.00 | 0.00 | 53 | 1020.5 |
| 20260507162952 | 16 | 359 | 1.6 | 6.4 | 0.00 | 0.00 | 0.00 | 55 | 1020.4 |
| 20260507161952 | 15 | 18 | 3.2 | 4.8 | 0.00 | 0.00 | 0.00 | 55 | 1020.4 |
| 20260507160951 | 15 | 24 | 1.6 | 4.8 | 0.00 | 0.00 | 0.00 | 59 | 1020.4 |
| 20260507155949 | 15 | 44 | 1.6 | 6.4 | 0.00 | 0.00 | 0.00 | 60 | 1020.4 |
| 20260507154948 | 15 | 293 | 3.2 | 8.0 | 0.00 | 0.00 | 0.00 | 51 | 1020.3 |
| 20260507153947 | 15 | 288 | 4.8 | 11.3 | 0.00 | 0.00 | 0.00 | 56 | 1020.7 |
| 20260507152947 | 15 | 266 | 3.2 | 11.3 | 0.00 | 0.00 | 0.00 | 57 | 1020.7 |
| 20260507151914 | 15 | 264 | 4.8 | 8.0 | 0.00 | 0.00 | 0.00 | 57 | 1020.8 |
| 20260507150913 | 14 | 277 | 3.2 | 11.3 | 0.00 | 0.00 | 0.00 | 57 | 1020.5 |
| 20260507145911 | 14 | 270 | 4.8 | 11.3 | 0.00 | 0.00 | 0.00 | 57 | 1020.6 |
| 20260507144910 | 14 | 289 | 3.2 | 9.7 | 0.00 | 0.00 | 0.00 | 59 | 1020.7 |
| 20260507143909 | 14 | 289 | 3.2 | 12.9 | 0.00 | 0.00 | 0.00 | 58 | 1020.8 |
| 20260507142908 | 14 | 281 | 6.4 | 12.9 | 0.00 | 0.00 | 0.00 | 55 | 1020.9 |
| 20260507141907 | 13 | 287 | 3.2 | 9.7 | 0.00 | 0.00 | 0.00 | 56 | 1020.5 |
| 20260507140906 | 13 | 266 | 4.8 | 9.7 | 0.00 | 0.00 | 0.00 | 60 | 1020.5 |
| 20260507135905 | 13 | 267 | 3.2 | 6.4 | 0.00 | 0.00 | 0.00 | 59 | 1020.1 |
| 20260507134904 | 12 | 261 | 1.6 | 6.4 | 0.00 | 0.00 | 0.00 | 60 | 1020.1 |
| 20260507133901 | 12 | 255 | 3.2 | 6.4 | 0.00 | 0.00 | 0.00 | 60 | 1020.0 |
| 20260507132829 | 11 | 236 | 1.6 | 8.0 | 0.00 | 0.00 | 0.00 | 62 | 1019.5 |
| 20260507131828 | 11 | 229 | 3.2 | 8.0 | 0.00 | 0.00 | 0.00 | 63 | 1019.4 |
| 20260507130827 | 9 | 239 | 1.6 | 8.0 | 0.00 | 0.00 | 0.00 | 67 | 1019.1 |
| 20260507125826 | 8 | 230 | 4.8 | 8.0 | 0.00 | 0.00 | 0.00 | 71 | 1019.0 |
| 20260507124825 | 8 | 237 | 3.2 | 8.0 | 0.00 | 0.00 | 0.00 | 73 | 1019.0 |
| 20260507123823 | 8 | 235 | 3.2 | 8.0 | 0.00 | 0.00 | 0.00 | 73 | 1018.8 |
| 20260507122823 | 8 | 233 | 6.4 | 8.0 | 0.00 | 0.00 | 0.00 | 75 | 1018.5 |
| 20260507121822 | 8 | 217 | 1.6 | 8.0 | 0.00 | 0.00 | 0.00 | 75 | 1018.6 |
| 20260507120820 | 8 | 222 | 3.2 | 8.0 | 0.00 | 0.00 | 0.00 | 75 | 1018.6 |
| 20260507115819 | 8 | 220 | 4.8 | 8.0 | 0.00 | 0.00 | 0.00 | 76 | 1018.6 |
| 20260507114747 | 8 | 156 | 0.0 | 3.2 | 0.00 | 0.00 | 0.00 | 74 | 1018.7 |
| 20260507113643 | 9 | 153 | 1.6 | 3.2 | 0.00 | 0.00 | 0.00 | 74 | 1018.9 |
| 20260507112642 | 9 | 153 | 1.6 | 4.8 | 0.00 | 0.00 | 0.00 | 74 | 1018.9 |
| 20260507111609 | 9 | 152 | 3.2 | 4.8 | 0.00 | 0.00 | 0.00 | 73 | 1019.0 |
| 20260507110608 | 10 | 162 | 3.2 | 6.4 | 0.00 | 0.00 | 0.00 | 72 | 1019.1 |
| 20260507105607 | 10 | 165 | 3.2 | 8.0 | 0.00 | 0.00 | 0.00 | 70 | 1019.2 |
| 20260507104607 | 11 | 170 | 1.6 | 4.8 | 0.00 | 0.00 | 0.00 | 69 | 1019.4 |
| 20260507103606 | 11 | 287 | 0.0 | 0.0 | 0.00 | 0.00 | 0.00 | 66 | 1019.6 |
| 20260507102605 | 12 | 286 | 0.0 | 4.8 | 0.00 | 0.00 | 0.00 | 65 | 1019.8 |
| 20260507101604 | 12 | 12 | 1.6 | 8.0 | 0.00 | 0.00 | 0.00 | 63 | 1020.3 |
| 20260507100603 | 12 | 241 | 1.6 | 8.0 | 0.00 | 0.00 | 0.00 | 61 | 1020.1 |
| 20260507095602 | 12 | 223 | 3.2 | 8.0 | 0.00 | 0.00 | 0.00 | 61 | 1020.2 |
| 20260507094601 | 13 | 221 | 3.2 | 9.7 | 0.00 | 0.00 | 0.00 | 61 | 1020.3 |
| 20260507093600 | 13 | 221 | 3.2 | 9.7 | 0.00 | 0.00 | 0.00 | 60 | 1020.2 |
| 20260507092559 | 13 | 224 | 3.2 | 8.0 | 0.00 | 0.00 | 0.00 | 59 | 1019.9 |
| 20260507091558 | 13 | 227 | 1.6 | 8.0 | 0.00 | 0.00 | 0.00 | 59 | 1020.0 |
| 20260507090454 | 14 | 226 | 4.8 | 8.0 | 0.00 | 0.00 | 0.00 | 58 | 1020.1 |
| 20260507085454 | 14 | 55 | 1.6 | 4.8 | 0.00 | 0.00 | 0.00 | 57 | 1020.2 |
| 20260507084453 | 15 | 19 | 3.2 | 8.0 | 0.00 | 0.00 | 0.00 | 54 | 1020.3 |
| 20260507083452 | 16 | 232 | 0.0 | 9.7 | 0.00 | 0.00 | 0.00 | 52 | 1020.3 |
| 20260507082420 | 16 | 233 | 1.6 | 17.7 | 0.00 | 0.00 | 0.00 | 50 | 1020.4 |
| 20260507081419 | 16 | 244 | 3.2 | 17.7 | 0.00 | 0.00 | 0.00 | 49 | 1020.5 |
| 20260507080418 | 16 | 238 | 3.2 | 16.1 | 0.00 | 0.00 | 0.00 | 49 | 1020.5 |
| 20260507075417 | 16 | 232 | 3.2 | 14.5 | 0.00 | 0.00 | 0.00 | 48 | 1020.5 |
| 20260507074415 | 16 | 233 | 4.8 | 14.5 | 0.00 | 0.00 | 0.00 | 49 | 1020.4 |
| 20260507073311 | 16 | 242 | 3.2 | 12.9 | 0.00 | 0.00 | 0.00 | 50 | 1020.3 |
| 20260507072239 | 16 | 224 | 3.2 | 9.7 | 0.00 | 0.00 | 0.00 | 51 | 1020.1 |
| 20260507071238 | 16 | 225 | 3.2 | 9.7 | 0.00 | 0.00 | 0.00 | 49 | 1020.1 |
| 20260507070238 | 17 | 224 | 6.4 | 9.7 | 0.00 | 0.00 | 0.00 | 47 | 1020.1 |
| 20260507065237 | 17 | 230 | 1.6 | 11.3 | 0.00 | 0.00 | 0.00 | 47 | 1020.2 |
| 20260507064236 | 17 | 235 | 3.2 | 11.3 | 0.00 | 0.00 | 0.00 | 47 | 1020.1 |
| 20260507063235 | 17 | 226 | 3.2 | 11.3 | 0.00 | 0.00 | 0.00 | 46 | 1020.2 |
| 20260507062234 | 17 | 226 | 3.2 | 17.7 | 0.00 | 0.00 | 0.00 | 45 | 1020.3 |
| 20260507061131 | 17 | 224 | 3.2 | 19.3 | 0.00 | 0.00 | 0.00 | 45 | 1020.1 |
| 20260507060130 | 17 | 228 | 3.2 | 17.7 | 0.00 | 0.00 | 0.00 | 46 | 1020.0 |
| 20260507055058 | 17 | 226 | 3.2 | 17.7 | 0.00 | 0.00 | 0.00 | 47 | 1020.0 |
| 20260507054057 | 17 | 223 | 3.2 | 16.1 | 0.00 | 0.00 | 0.00 | 49 | 1020.0 |
| 20260507053024 | 17 | 223 | 3.2 | 16.1 | 0.00 | 0.00 | 0.00 | 48 | 1019.8 |
| 20260507051952 | 17 | 228 | 6.4 | 16.1 | 0.00 | 0.00 | 0.00 | 48 | 1019.7 |
| 20260507050951 | 17 | 223 | 4.8 | 14.5 | 0.00 | 0.00 | 0.00 | 48 | 1019.8 |
| 20260507045950 | 17 | 232 | 4.8 | 12.9 | 0.00 | 0.00 | 0.00 | 50 | 1019.6 |
| 20260507044949 | 16 | 232 | 4.8 | 14.5 | 0.00 | 0.00 | 0.00 | 53 | 1019.3 |
| 20260507043948 | 15 | 225 | 3.2 | 14.5 | 0.00 | 0.00 | 0.00 | 61 | 1019.1 |
| 20260507042947 | 15 | 175 | 1.6 | 6.4 | 0.00 | 0.00 | 0.00 | 69 | 1019.1 |
| 20260507041914 | 15 | 147 | 3.2 | 8.0 | 0.00 | 0.00 | 0.00 | 69 | 1019.0 |
| 20260507040842 | 16 | 156 | 3.2 | 8.0 | 0.00 | 0.00 | 0.00 | 69 | 1018.9 |
| 20260507035810 | 16 | 159 | 1.6 | 6.4 | 0.00 | 0.00 | 0.00 | 69 | 1018.8 |
| 20260507034738 | 16 | 146 | 0.0 | 3.2 | 0.00 | 0.00 | 0.00 | 68 | 1018.8 |
| 20260507033737 | 16 | 96 | 1.6 | 4.8 | 0.00 | 0.00 | 0.00 | 68 | 1018.8 |
| 20260507032705 | 16 | 94 | 1.6 | 4.8 | 0.00 | 0.00 | 0.00 | 67 | 1018.8 |
| 20260507031704 | 17 | 38 | 1.6 | 3.2 | 0.00 | 0.00 | 0.00 | 66 | 1018.8 |
| 20260507030703 | 17 | 37 | 0.0 | 3.2 | 0.00 | 0.00 | 0.00 | 66 | 1018.8 |